Regional Weather Roundup
Issued by NWS Cleveland, OH

Home | Current Version | Previous Version | Graphics & Text | Print | Product List | Glossary On
Versions: 1 2 3 4 5 6 7 8 9 10 11 12 13 14 15 16 17 18 19 20 21 22 23 24 25 26 27 28 29 30 31 32 33 34 35 36 37 38 39 40 41 42 43 44 45 46 47 48 49 50
000
ASUS41 KCLE 271702
RWRCLE
OHIO REGIONAL WEATHER ROUNDUP
NATIONAL WEATHER SERVICE CLEVELAND, OH
100 PM EDT WED MAY 27 2015

NOTE: "FAIR" INDICATES FEW OR NO CLOUDS BELOW 12,000 FEET WITH NO
SIGNIFICANT WEATHER AND/OR OBSTRUCTIONS TO VISIBILITY.

OHZ001>008-015>018-024>027-034-035-043-044-271800-
   NORTHWEST OHIO

CITY           SKY/WX    TMP DP  RH WIND       PRES   REMARKS
DEFIANCE       PTSUNNY   75  61  61 S24G33    30.00F
FINDLAY        PTSUNNY   80  65  59 SW18      30.03F
TOLEDO EXPRESS PTSUNNY   81  63  54 SW13G24   29.99F
TOLEDO EXEC    PTSUNNY   80  63  55 SW16      30.00F
LIMA           PTSUNNY   77  64  64 SW13      30.06F
$$

OHZ009>014-019>023-028>033-038-089-271800-
   NORTHEAST OHIO

CITY           SKY/WX    TMP DP  RH WIND       PRES   REMARKS
CLE-HOPKINS    PTSUNNY   80  62  54 SW17G23   30.08S
CLE-LAKEFRONT  PTSUNNY   80  62  54 S14       30.05R
CUY CO. ARPT   PTSUNNY   81  64  57 SW12      30.07S
LORAIN-ELYRIA  PTSUNNY   77  61  57 SW17G28   30.06F
ASHTABULA      MOSUNNY   77  63  61 SW13      30.08S
AKRON-CANTON   PTSUNNY   79  61  53 SW17      30.11S
WOOSTER        PTSUNNY   76  64  66 SW16      30.11S
MANSFIELD      PTSUNNY   76  62  62 SW18      30.11S
YOUNGSTOWN     PTSUNNY   77  61  57 SW12      30.11S
$$

OHZ042-051>053-060>062-070>072-077>081-271800-
  SOUTHWEST OHIO

CITY           SKY/WX    TMP DP  RH WIND       PRES   REMARKS
CINC-COVINGTON PTSUNNY   78  65  63 S15G22    30.13F
CINC-LUNKEN    MOSUNNY   78  66  66 SW12      30.12F
HAMILTON       MOSUNNY   80  64  58 VRB7G20   30.11F
DAYTON         PTSUNNY   79  64  60 SW16      30.11S
WRIGHT-PAT AFB NOT AVBL
DAYTON GENERAL MOSUNNY   77  63  61 SW8G20    30.11F
WILMINGTON     MOSUNNY   78  61  55 SW14      30.12F
$$

OHZ036-037-039>041-045>050-054>059-063>069-073>076-082>088-271800-
  CENTRAL AND SOUTHEAST OHIO

CITY           SKY/WX    TMP DP  RH WIND       PRES   REMARKS
COLUMBUS       MOSUNNY   77  63  61 SW14      30.12S
OSU AIRPORT    PTSUNNY   79  61  53 SW14G22   30.12S
BOLTON FIELD   PTSUNNY   77  64  65 SW14      30.13S
RICKENBACK AFB NOT AVBL
NEWARK         PTSUNNY   77  63  61 SW13G20   30.13S
MARION         MOSUNNY   78  63  59 SW12G23   30.09F
LANCASTER      PTSUNNY   78  62  57 SW13      30.14S
ZANESVILLE     MOSUNNY   77  62  59 SW14      30.14
NEW PHILLY     MOSUNNY   79  64  60 S9        30.13S
$$



USA.gov is the U.S. government's official web portal to all federal, state and local government web resources and services.